Accueil
METAR-TAF:

METAR-TAF

Aéroports :

Beverly, Massachusetts, États-Unis

latitude: 42-35-01N, longitude: 070-54-59W, altitude: 33 m

Observation

Le bulletin a été fait il y a 16 minutes, à 01:53 UTC
Vent 5 kt de nord/nord-ouest
Température -4°C
Humidité 54%
Pression 1022 hPa
Visibilité: 16.1 km
Ciel clair

METAR: KBVY 110153Z AUTO 34005KT 10SM CLR M04/M12 A3017 RMK AO2 SLP213 T10391122

Heure: 21:09 (02:09 UTC)


TAF: absent

Observations et prévisions météorologiques de plus de 4000 aéroports (messages METAR et TAF).

Les stations disponibles sont représentées par des disques jaunes et rouges sur la carte.

Passer la souris dessus pour voir le nom de la station.

Cliquer dessus pour voir les observations et prévisions météorologiques.

Pour changer de carte: cliquez sur les boutons verts avec une croix noire pour zoomer, sur le bouton vert avec un tiret pour effectuer un zoom arrière, ou sur les flèches vertes pour les cartes adjacentes.


METAR-TAF: